Flag for U.S.A. Weather past 2 weeks in Naples, Florida, U.S.A.

Now
84 °F

Passing clouds.


Feels Like: 94 °F
Forecast: 78 / 88 °F
Wind: 8 mph from West

Location: Naples Municipal

Current Time: Jul 29, 2015 at 10:15:15 PM

Latest Report: Jul 29, 2015 at 9:53 PM


Visibility: 10 mi

Pressure: 30.00 "Hg

Humidity: 80%

Dew point: 77 °F

Location of NaplesLocation

Historic Weather in Naples — Graph

°F

Naples temperature yesterday

Maximum temperature yesterday: 90 °F (at 12:53 PM)
Minimum temperature yesterday: 78 °F (at 12:53 AM)
Average temperature yesterday: 85 °F

Past Weeks' High & Low Weather Summary

 TemperatureHumidityPressure
High90 °F (Jul 22, 1:53 PM)100% (Jul 16, 5:53 PM)30.09 "Hg (Jul 16, 5:53 PM)
Low75 °F (Jul 16, 6:53 AM)52% (Jul 19, 2:53 PM)29.86 "Hg (Jul 26, 4:53 AM)
Average83 °F77%30.00 "Hg
* Reported Jul 14 8:50 PM — Jul 29 8:53 PM, Naples, Weather by CustomWeather, © 2015

Note: Actual official high and low records may vary slightly from our data, if they occured in-between our weather recording intervals... More about our weather records

Advertising

Naples weather history for previous 24 hours

 ConditionsComfort  
Time TempWeatherWind HumidityBarometerVisibility
8:53 PM
Wed, Jul 29
84 °FPassing clouds.7 mph80%29.98 "Hg10 mi
7:53 PM84 °FPassing clouds.9 mph77%29.97 "Hg10 mi
6:53 PM84 °FPassing clouds.6 mph77%29.96 "Hg10 mi
5:53 PM84 °FSunny.7 mph77%29.97 "Hg10 mi
4:53 PM84 °FSunny.5 mph80%29.98 "Hg10 mi
3:53 PM84 °FPassing clouds.5 mph77%30.01 "Hg10 mi
2:53 PM83 °FPassing clouds.6 mph85%30.02 "Hg10 mi
1:53 PM83 °FPartly sunny.8 mph85%30.03 "Hg9 mi
12:53 PM85 °FScattered clouds.12 mph83%30.04 "Hg10 mi
11:53 AM86 °FPassing clouds.9 mph80%30.03 "Hg10 mi
11:03 AM81 °FLight rain. Mostly cloudy.No wind85%30.03 "Hg4 mi
11:01 AM81 °FLight rain. Mostly cloudy.5 mph85%30.03 "Hg1 mi
9:53 AM88 °FScattered clouds.8 mph75%30.01 "Hg10 mi
8:53 AM87 °FSunny.9 mph75%30.00 "Hg10 mi
7:53 AM84 °FPassing clouds.6 mph77%29.98 "Hg10 mi
6:53 AM84 °FPassing clouds.3 mph83%29.96 "Hg10 mi
5:53 AM84 °FPassing clouds.7 mph83%29.96 "Hg10 mi
4:53 AM84 °FClear.8 mph83%29.96 "Hg10 mi
3:53 AM85 °FPassing clouds.8 mph77%29.97 "Hg10 mi
2:53 AM85 °FClear.7 mph75%29.96 "Hg10 mi
1:53 AM84 °FClear.6 mph80%29.98 "Hg10 mi
12:53 AM84 °FClear.7 mph80%29.99 "Hg10 mi
11:53 PM
Tue, Jul 28
85 °FClear.8 mph75%30.00 "Hg10 mi
10:53 PM85 °FPassing clouds.9 mph77%30.00 "Hg10 mi
Weather by CustomWeather, © 2015

See weather overviewHow to use our weather pages